TimeCST,TemperatureF,Dew PointF,Humidity,Sea Level PressureIn,VisibilityMPH,Wind Direction,Wind SpeedMPH,Gust SpeedMPH,PrecipitationIn,Events,Conditions,WindDirDegrees,DateUTC
12:53 AM,-0.0,-4.0,83,30.26,10.0,SE,4.6,-,N/A,,Clear,130,2014-02-03 06:53:00
1:53 AM,1.0,-2.9,83,30.25,10.0,ESE,4.6,-,N/A,,Clear,110,2014-02-03 07:53:00
2:53 AM,-0.9,-2.9,91,30.25,10.0,ESE,5.8,-,N/A,,Clear,120,2014-02-03 08:53:00
3:53 AM,1.0,-2.9,83,30.24,10.0,SE,4.6,-,N/A,,Clear,130,2014-02-03 09:53:00
4:53 AM,-0.0,-4.0,83,30.24,10.0,SE,4.6,-,N/A,,Clear,130,2014-02-03 10:53:00
5:53 AM,1.0,-2.9,83,30.24,9.0,ESE,4.6,-,N/A,,Clear,120,2014-02-03 11:53:00
6:53 AM,-0.0,-5.1,79,30.25,9.0,SSW,3.5,-,N/A,,Partly Cloudy,210,2014-02-03 12:53:00
7:53 AM,1.9,-0.9,88,30.25,10.0,South,3.5,-,N/A,,Partly Cloudy,180,2014-02-03 13:53:00
8:53 AM,1.9,-0.9,88,30.28,10.0,SSE,3.5,-,N/A,,Partly Cloudy,150,2014-02-03 14:53:00
9:53 AM,7.0,3.0,84,30.28,10.0,SW,3.5,-,N/A,,Partly Cloudy,220,2014-02-03 15:53:00
10:53 AM,10.9,3.0,70,30.29,7.0,WSW,3.5,-,N/A,,Scattered Clouds,240,2014-02-03 16:53:00
11:53 AM,15.1,5.0,64,30.29,8.0,Calm,Calm,-,N/A,,Mostly Cloudy,0,2014-02-03 17:53:00
12:53 PM,16.0,6.1,65,30.28,9.0,NW,9.2,-,N/A,,Mostly Cloudy,320,2014-02-03 18:53:00
1:53 PM,16.0,6.1,65,30.28,10.0,WNW,8.1,-,N/A,,Overcast,300,2014-02-03 19:53:00
2:53 PM,16.0,3.9,59,30.30,10.0,NNW,10.4,-,N/A,,Overcast,330,2014-02-03 20:53:00
3:53 PM,16.0,3.9,59,30.31,10.0,WNW,4.6,-,N/A,,Overcast,300,2014-02-03 21:53:00
4:53 PM,15.1,3.0,59,30.33,10.0,NW,8.1,-,N/A,,Overcast,310,2014-02-03 22:53:00
5:53 PM,12.9,3.0,65,30.34,10.0,Variable,5.8,-,N/A,,Overcast,0,2014-02-03 23:53:00
6:53 PM,12.9,3.0,65,30.36,10.0,WSW,3.5,-,N/A,,Overcast,250,2014-02-04 00:53:00
7:53 PM,10.9,1.9,67,30.35,10.0,NNW,3.5,-,N/A,,Mostly Cloudy,330,2014-02-04 01:53:00
8:53 PM,8.1,1.0,73,30.37,10.0,Calm,Calm,-,N/A,,Mostly Cloudy,0,2014-02-04 02:53:00
9:53 PM,6.1,-0.0,76,30.39,9.0,West,3.5,-,N/A,,Mostly Cloudy,260,2014-02-04 03:53:00
10:53 PM,6.1,1.0,80,30.40,10.0,WNW,3.5,-,N/A,,Mostly Cloudy,290,2014-02-04 04:53:00
11:53 PM,6.1,-0.0,76,30.43,8.0,Calm,Calm,-,N/A,,Scattered Clouds,0,2014-02-04 05:53:00